Observations
| Time | Sensor | AQI | SAQ | Temp °C | Hum % | Pres Pa | CO μg/m³ | H₂S μg/m³ | NO μg/m³ | NO₂ μg/m³ | O₃ μg/m³ | SO₂ μg/m³ | CO₂e PPM | VOC PPM | PM1 μg/m³ | PM2.5 μg/m³ | PM4 μg/m³ | PM10 μg/m³ | TPS µm |
|---|---|---|---|---|---|---|---|---|---|---|---|---|---|---|---|---|---|---|---|
| Wednesday 12 August 2026 | |||||||||||||||||||
| 05:25 | Trim Patrick St | 2 | 18.4 | 72 | 38,460 | 0.05 | 1.7 | 1.41 | 11.19 | 58.55 | 0 | 6.29 | 10.77 | 11.85 | |||||
| 05:24 | Trim Patrick St | 2 | 18.4 | 72 | 38,460 | 0.04 | 1.83 | 1.33 | 22.87 | 58.84 | 0 | 6.29 | 10.8 | 11.88 | |||||
| 05:23 | Trim Market St | 2 | 19 | 68 | 56,468 | 0.09 | 0 | 1.28 | 12.37 | 68.19 | 0 | 2.85 | 4.13 | 6.89 | |||||
| 05:23 | Trim Patrick St | 2 | 18.4 | 72 | 38,460 | 0.05 | 0.13 | 1.56 | 11.01 | 53.92 | 0 | 8 | 12.93 | 14.22 | |||||
| 05:22 | Trim Market St | 2 | 19 | 68 | 56,463 | 0.08 | 0 | 1.28 | 12.55 | 69.49 | 0 | 5.7 | 7.55 | 12.64 | |||||
| 05:22 | Trim Patrick St | 2 | 18.4 | 72 | 38,460 | 0.05 | 2.46 | 1.43 | 26.95 | 48.95 | 0 | 8 | 12.19 | 13.41 | |||||
| 05:21 | Trim Market St | 2 | 19 | 68 | 56,465 | 0.09 | 0 | 1.28 | 12.11 | 70.31 | 0 | 3.56 | 5.11 | 8.17 | |||||
| 05:21 | Trim Patrick St | 2 | 18.4 | 71 | 38,460 | 0.04 | 1.94 | 1.53 | 19.31 | 55.68 | 0 | 7.14 | 12.25 | 13.48 | |||||
| 05:20 | Trim Patrick St | 2 | 18.3 | 72 | 38,460 | 0.05 | 0.66 | 1.44 | 12.21 | 51.24 | 0 | 8 | 11.48 | 12.63 | |||||
| 05:19 | Trim Market St | 2 | 19 | 68 | 56,483 | 0.09 | 0 | 1.28 | 13.81 | 64.82 | 0 | 3.56 | 5.6 | 8.81 | |||||
| 05:19 | Trim Patrick St | 2 | 18.4 | 72 | 38,460 | 0.05 | 0 | 1.32 | 11.46 | 50.53 | 0 | 8 | 11.48 | 12.63 | |||||
| 05:18 | Trim Market St | 2 | 19 | 68 | 56,504 | 0.08 | 0 | 1.28 | 12.62 | 63.24 | 0 | 3.56 | 5.6 | 8.81 | |||||
| 05:18 | Trim Patrick St | 2 | 18.4 | 72 | 38,460 | 0.03 | 0.6 | 1.28 | 11.46 | 60.27 | 0 | 8.86 | 13.66 | 15.03 | |||||
| 05:17 | Trim Market St | 2 | 19 | 68 | 56,515 | 0.07 | 0 | 1.29 | 12.73 | 69.32 | 0 | 2.85 | 4.63 | 6.89 | |||||
| 05:17 | Trim Patrick St | 2 | 18.4 | 72 | 38,460 | 0.03 | 1.94 | 1.31 | 14.96 | 54.44 | 0 | 4.57 | 10.04 | 11.05 | |||||
| 05:16 | Trim Market St | 2 | 19 | 68 | 56,514 | 0.07 | 0 | 1.29 | 14.03 | 64.22 | 0 | 3.56 | 5.12 | 7.53 | |||||
| 05:16 | Trim Patrick St | 2 | 18.4 | 72 | 38,460 | 0.05 | 3.01 | 1.39 | 16.83 | 57.75 | 0 | 8.86 | 12.19 | 13.41 | |||||
| 05:15 | Trim Patrick St | 2 | 18.3 | 72 | 38,460 | 0.04 | 3.3 | 1.38 | 27.82 | 56.72 | 0 | 6.29 | 10.04 | 11.05 | |||||
| 05:14 | Trim Patrick St | 2 | 18.3 | 72 | 38,460 | 0.04 | 1.42 | 1.36 | 21.94 | 50.2 | 0 | 6.29 | 10.77 | 11.85 | |||||
| 05:13 | Trim Patrick St | 2 | 18.3 | 72 | 38,460 | 0.04 | 0.39 | 1.45 | 12.79 | 52.54 | 0 | 5.43 | 10.05 | 11.06 | |||||